Kayseri, Turkey

3:32 PM +03 on December 03, 2016 (GMT +0300)
Erkilet Air Base

Weather History for LTAU - November, 2012

Change the Weather History Date:

Thursday, November 8, 2012

  Actual Average Record
Temperature  
Mean Temperature 52 °F -  
Max Temperature 64 °F 57 °F 68 °F (2002)
Min Temperature 41 °F 30 °F -117 °F (1997)
Degree Days  
Heating Degree Days 12    
Growing Degree Days 2 (Base 50)    
Moisture  
Dew Point 44 °F    
Average Humidity 74    
Maximum Humidity 94    
Minimum Humidity 34    
Precipitation  
Precipitation 0.08 in - - ()
Sea Level Pressure  
Sea Level Pressure 29.94 in    
Wind  
Wind Speed 2 mph ()    
Max Wind Speed 12 mph    
Max Gust Speed -    
Visibility 5.9 miles    
Events Rain    
Averages and records for this station are not official NWS values.
T = Trace of Precipitation, MM = Missing Value Source: Averaged Metar Reports

Daily Weather History Graph

Daily Weather History Graph

Search for Another Location

Airport or City:

Trip Planner

Search our weather history database for the weather conditions in past years. The results will help you decide how hot, cold, wet, or windy it might be!

Date:

Astronomy

Nov. 08, 2012 Rise Set
Actual Time 6:12 AM EET 4:30 PM EET
Civil Twilight 5:44 AM EET 4:58 PM EET
Nautical Twilight 5:13 AM EET 5:30 PM EET
Astronomical Twilight 4:41 AM EET 6:01 PM EET
Moon No Moon Rise 12:56 PM EET (11/8)
Length of Visible Light 11h 13m
Length of Day
10h 17m
Waning Crescent, 36% of the Moon is Illuminated
Nov 8
Waning Crescent
Nov 14
New
Nov 20
First Quarter
Nov 28
Full
Dec 6
Last Quarter

Hourly Weather History & Observations

Time (EET) Temp. Windchill Dew Point Humidity Pressure Visibility Wind Dir Wind Speed Gust Speed Precip Events Conditions
12:20 AM 55.4 °F - 41.0 °F 58% 30.01 in 6.2 mi North 3.5 mph - N/A   Mostly Cloudy
12:50 AM 50.0 °F - 41.0 °F 71% 30.01 in 6.2 mi Calm Calm - N/A   Mostly Cloudy
1:20 AM 46.4 °F - 39.2 °F 76% 30.01 in 6.2 mi Calm Calm - N/A   Mostly Cloudy
1:50 AM 46.4 °F - 39.2 °F 76% 30.01 in 6.2 mi Calm Calm - N/A   Mostly Cloudy
2:00 AM 47 °F - 40 °F 67%  in 12 mi Calm Calm - -   Partly Cloudy
2:20 AM 44.6 °F - 39.2 °F 81% 30.01 in 6.2 mi Calm Calm - N/A   Mostly Cloudy
2:50 AM 44.6 °F - 39.2 °F 81% 29.98 in 6.2 mi Calm Calm - N/A   Mostly Cloudy
3:20 AM 44.6 °F 43.1 °F 39.2 °F 81% 29.98 in 6.2 mi ENE 3.5 mph - N/A   Mostly Cloudy
3:50 AM 44.6 °F - 39.2 °F 81% 29.98 in 6.2 mi NE 1.2 mph - N/A   Mostly Cloudy
4:20 AM 42.8 °F - 37.4 °F 81% 29.98 in 6.2 mi Calm Calm - N/A   Mostly Cloudy
4:50 AM 44.6 °F - 39.2 °F 81% 29.98 in 6.2 mi WNW 1.2 mph - N/A   Mostly Cloudy
5:20 AM 42.8 °F - 39.2 °F 87% 29.98 in 6.2 mi Calm Calm - N/A   Mostly Cloudy
5:50 AM 42.8 °F - 39.2 °F 87% 29.98 in 6.2 mi Calm Calm - N/A   Mostly Cloudy
6:20 AM 44.6 °F - 41.0 °F 87% 29.98 in 6.2 mi Calm Calm - N/A   Mostly Cloudy
6:50 AM 42.8 °F 41.1 °F 39.2 °F 87% 29.98 in 6.2 mi NNE 3.5 mph - N/A   Mostly Cloudy
7:20 AM 46.4 °F 44.3 °F 41.0 °F 81% 29.98 in 6.2 mi NNE 4.6 mph - N/A   Mostly Cloudy
7:50 AM 51.8 °F - 42.8 °F 71% 29.98 in 6.2 mi North 3.5 mph - N/A   Mostly Cloudy
8:00 AM 51 °F - 42 °F 62%  in 12 mi North 3.5 mph - -   Partly Cloudy
8:20 AM 51.8 °F - 42.8 °F 71% 29.98 in 6.2 mi Calm Calm - N/A   Mostly Cloudy
8:50 AM 55.4 °F - 42.8 °F 63% 29.98 in 6.2 mi Variable 1.2 mph - N/A   Mostly Cloudy
9:20 AM 59.0 °F - 42.8 °F 55% 29.98 in 6.2 mi South 3.5 mph - N/A   Mostly Cloudy
9:50 AM 59.0 °F - 42.8 °F 55% 29.95 in 6.2 mi SSE 4.6 mph - N/A   Mostly Cloudy
10:20 AM 60.8 °F - 44.6 °F 55% 29.95 in 6.2 mi SW 4.6 mph - N/A   Mostly Cloudy
10:50 AM 62.6 °F - 44.6 °F 52% 29.95 in 6.2 mi South 3.5 mph - N/A   Mostly Cloudy
11:20 AM 62.6 °F - 44.6 °F 52% 29.92 in 6.2 mi Calm Calm - N/A   Mostly Cloudy
11:50 AM 64.4 °F - 41.0 °F 42% 29.89 in 6.2 mi Calm Calm - N/A   Mostly Cloudy
12:20 PM 62.6 °F - 42.8 °F 48% 29.89 in 6.2 mi Calm Calm - N/A   Mostly Cloudy
12:50 PM 62.6 °F - 42.8 °F 48% 29.89 in 6.2 mi Calm Calm - N/A   Mostly Cloudy
1:20 PM 64.4 °F - 42.8 °F 45% 29.86 in 6.2 mi Calm Calm - N/A   Mostly Cloudy
1:50 PM 64.4 °F - 42.8 °F 45% 29.86 in 6.2 mi Calm Calm - N/A   Mostly Cloudy
2:00 PM 64 °F - 43 °F 34%  in 12 mi Calm Calm - -   Partly Cloudy
2:20 PM 64.4 °F - 42.8 °F 45% 29.89 in 6.2 mi Calm Calm - N/A   Overcast
2:50 PM 62.6 °F - 44.6 °F 52% 29.86 in 6.2 mi West 4.6 mph - N/A Rain Light Rain
3:20 PM 60.8 °F - 46.4 °F 59% 29.89 in 6.2 mi West 8.1 mph - N/A Rain Light Rain
3:50 PM 59.0 °F - 46.4 °F 63% 29.89 in 6.2 mi West 8.1 mph - N/A Rain Light Rain
4:20 PM 53.6 °F - 48.2 °F 82% 29.89 in 6.2 mi WSW 11.5 mph - N/A Rain Light Rain
4:50 PM 51.8 °F - 48.2 °F 88% 29.92 in 5.6 mi SSW 5.8 mph - N/A Rain Light Rain
5:20 PM 50.0 °F - 48.2 °F 94% 29.92 in 5.0 mi Variable 1.2 mph - N/A Rain Light Rain
5:50 PM 50.0 °F - 48.2 °F 94% 29.92 in 3.7 mi SW 4.6 mph - N/A Rain Light Rain
6:20 PM 50.0 °F - 48.2 °F 94% 29.95 in 6.2 mi SSW 4.6 mph - N/A Rain Light Rain
6:50 PM 50.0 °F - 48.2 °F 94% 29.92 in 3.7 mi Calm Calm - N/A Rain Light Rain
7:20 PM 50.0 °F - 48.2 °F 94% 29.92 in 3.7 mi SW 1.2 mph - N/A Rain Light Rain
7:50 PM 50.0 °F - 48.2 °F 94% 29.92 in 4.3 mi West 1.2 mph - N/A Rain Light Rain
8:00 PM 49 °F - 48 °F 94%  in 4 mi West 1.2 mph - - Rain Light Rain
8:20 PM 50.0 °F - 48.2 °F 94% 29.92 in 3.7 mi WSW 1.2 mph - N/A   Overcast
8:50 PM 50.0 °F - 48.2 °F 94% 29.95 in 3.7 mi WNW 2.3 mph - N/A Rain Light Rain
9:20 PM 50.0 °F - 48.2 °F 94% 29.92 in 4.3 mi WNW 3.5 mph - N/A Rain Light Rain
9:50 PM 50.0 °F - 48.2 °F 94% 29.92 in 3.7 mi Calm Calm - N/A Rain Light Rain
10:20 PM 50.0 °F - 48.2 °F 94% 29.92 in 3.7 mi Variable 1.2 mph - N/A Rain Light Rain
10:50 PM 50.0 °F - 48.2 °F 94% 29.92 in 3.7 mi NW 3.5 mph - N/A Rain Light Rain
11:20 PM 50.0 °F - 48.2 °F 94% 29.92 in 3.7 mi Calm Calm - N/A Rain Light Rain
11:50 PM 50.0 °F - 48.2 °F 94% 29.92 in 3.7 mi Calm Calm - N/A Rain Light Rain